Hibbing, MN

10:22 PM CST on February 27, 2017 (GMT -0600)
Chisholm-hibbing

Weather History for KHIB - January, 2014

Change the Weather History Date:

Saturday, January 18, 2014

  Actual Average Record
Temperature  
Mean Temperature 8 °F -  
Max Temperature 21 °F 18 °F 43 °F (1981)
Min Temperature -6 °F -5 °F -47 °F (1967)
Degree Days  
Heating Degree Days 58    
Moisture  
Dew Point 5 °F    
Average Humidity 71    
Maximum Humidity 85    
Minimum Humidity 42    
Precipitation  
Precipitation 0.00 in - - ()
Sea Level Pressure  
Sea Level Pressure 29.78 in    
Wind  
Wind Speed 5 mph (WNW)    
Max Wind Speed 12 mph    
Max Gust Speed 22 mph    
Visibility 10 miles    
Events Snow    
Averages and records for this station are not official NWS values.
T = Trace of Precipitation, MM = Missing Value Source: NWS Daily Summary

Daily Weather History Graph

Daily Weather History Graph

Search for Another Location

Airport or City:

Trip Planner

Search our weather history database for the weather conditions in past years. The results will help you decide how hot, cold, wet, or windy it might be!

Date:

Astronomy

Jan. 18, 2014 Rise Set
Actual Time 7:51 AM CST 4:52 PM CST
Civil Twilight 7:17 AM CST 5:26 PM CST
Nautical Twilight 6:39 AM CST 6:04 PM CST
Astronomical Twilight 6:03 AM CST 6:40 PM CST
Moon 7:49 PM CST (1/18) 8:39 AM CST (1/18)
Length of Visible Light 10h 08m
Length of Day
9h 00m
Waning Gibbous, 94% of the Moon is Illuminated
Jan 18
Waning Gibbous
Jan 23
Last Quarter
Jan 30
New
Feb 6
First Quarter
Feb 14
Full

Hourly Weather History & Observations

Time (CST) Temp. Windchill Dew Point Humidity Pressure Visibility Wind Dir Wind Speed Gust Speed Precip Events Conditions
12:53 AM 3.0 °F -8.0 °F -2.0 °F 80% 29.78 in 10.0 mi ESE 5.8 mph - N/A   Overcast
1:53 AM 5.0 °F -2.1 °F -2.0 °F 73% 29.77 in 10.0 mi ESE 3.5 mph - N/A   Overcast
2:53 AM 5.0 °F -4.1 °F -2.0 °F 73% 29.77 in 10.0 mi ESE 4.6 mph - N/A   Overcast
3:53 AM 5.0 °F -4.1 °F -2.0 °F 73% 29.75 in 10.0 mi East 4.6 mph - N/A   Overcast
4:53 AM 3.9 °F -5.3 °F -2.0 °F 76% 29.78 in 10.0 mi East 4.6 mph - N/A   Overcast
5:53 AM 3.0 °F -4.4 °F -2.0 °F 80% 29.81 in 10.0 mi ENE 3.5 mph - N/A   Overcast
6:53 AM 3.0 °F -4.4 °F -0.9 °F 84% 29.85 in 10.0 mi ENE 3.5 mph - N/A   Overcast
7:53 AM -2.9 °F -11.2 °F -7.1 °F 82% 29.88 in 10.0 mi NNW 3.5 mph - N/A   Mostly Cloudy
8:53 AM -6.0 °F -16.9 °F -9.9 °F 83% 29.91 in 10.0 mi NW 4.6 mph - N/A   Clear
9:53 AM 5.0 °F -2.1 °F -0.0 °F 80% 29.94 in 10.0 mi North 3.5 mph - N/A   Clear
10:53 AM 12.9 °F - 3.9 °F 67% 29.94 in 10.0 mi Calm Calm - N/A   Clear
11:53 AM 15.1 °F 7.7 °F 5.0 °F 64% 29.94 in 10.0 mi NNW 4.6 mph - N/A   Clear
12:53 PM 18.0 °F 12.7 °F 3.9 °F 54% 29.91 in 10.0 mi NW 3.5 mph - N/A   Clear
1:53 PM 21.0 °F 12.4 °F 3.0 °F 46% 29.88 in 10.0 mi WNW 6.9 mph - N/A   Clear
2:53 PM 21.0 °F 13.4 °F 1.0 °F 42% 29.88 in 10.0 mi West 5.8 mph - 0.00 in   Clear
3:53 PM 21.0 °F 13.4 °F 1.9 °F 44% 29.88 in 10.0 mi WSW 5.8 mph - N/A   Clear
4:53 PM 19.9 °F 12.1 °F 3.9 °F 50% 29.86 in 10.0 mi Variable 5.8 mph - N/A   Mostly Cloudy
5:53 PM 19.9 °F 12.1 °F 10.9 °F 68% 29.80 in 10.0 mi WSW 5.8 mph - N/A   Overcast
6:53 PM 21.0 °F 11.4 °F 12.9 °F 71% 29.76 in 5.0 mi WSW 8.1 mph - 0.00 in Snow Light Snow
7:53 PM 21.0 °F 9.9 °F 12.0 °F 68% 29.72 in 10.0 mi WSW 10.4 mph 18.4 mph 0.00 in   Mostly Cloudy
8:53 PM 21.9 °F 12.5 °F 14.0 °F 72% 29.70 in 10.0 mi West 8.1 mph - N/A   Overcast
9:13 PM 21.2 °F 10.9 °F 15.8 °F 80% 29.58 in 10.0 mi West 9.2 mph 17.3 mph N/A   Overcast
9:53 PM 21.9 °F 10.4 °F 16.0 °F 78% 29.63 in 10.0 mi West 11.5 mph 21.9 mph N/A   Overcast
10:31 PM 21.2 °F 9.5 °F 15.8 °F 80% 29.53 in 10.0 mi West 11.5 mph 17.3 mph N/A   Overcast
10:53 PM 21.0 °F 13.4 °F 16.0 °F 81% 29.59 in 10.0 mi West 5.8 mph - N/A   Overcast
11:53 PM 21.0 °F 13.4 °F 17.1 °F 85% 29.55 in 10.0 mi WSW 5.8 mph - N/A   Overcast